DW2762 Weather Reports


Display with metric or nautical units.
time (UTC)temp
F
wind
direction
speed
MPH
gust
MPH
rain 1hr
in
rain 24hr
in
rain mn
in
humidity
%
barometer
mb
20260507203110 58 324 1.0 5.0 0.00 0.00 0.00 67 1014.8
20260507201609 58 315 0.0 2.0 0.00 0.00 0.00 69 1014.5
20260507194610 59 238 0.0 0.0 0.00 0.00 0.00 69 1014.3
20260507193108 59 238 0.0 0.0 0.00 0.00 0.00 68 1014.2
20260507191608 60 235 0.0 1.0 0.00 0.00 0.00 68 1014.2
20260507190108 60 236 1.0 4.0 0.00 0.00 0.00 65 1014.0
20260507184608 60 238 0.0 0.0 0.00 0.00 0.00 65 1013.6
20260507183108 60 238 1.0 4.0 0.00 0.00 0.00 63 1013.5
20260507181609 62 206 2.0 4.0 0.00 0.00 0.00 61 1013.3
20260507180108 62 205 2.0 3.0 0.00 0.00 0.00 59 1013.0
20260507174608 64 182 2.0 3.0 0.00 0.00 0.00 56 1013.0
20260507173113 65 159 3.0 7.0 0.00 0.00 0.00 54 1012.9
20260507171612 66 286 2.0 3.0 0.00 0.00 0.00 53 1012.6
20260507164612 67 290 3.0 6.0 0.00 0.00 0.00 51 1012.2
20260507163113 68 269 3.0 7.0 0.00 0.00 0.00 49 1012.1
20260507161612 69 288 4.0 9.0 0.00 0.00 0.00 47 1012.1
20260507160112 69 281 1.0 4.0 0.00 0.00 0.00 47 1011.9
20260507154612 68 333 2.0 5.0 0.00 0.00 0.00 50 1011.9
20260507151612 69 284 7.0 11.0 0.00 0.00 0.00 49 1012.0
20260507143111 69 265 4.0 7.0 0.00 0.00 0.00 48 1011.7
20260507141611 69 300 2.0 9.0 0.00 0.00 0.00 46 1011.8
20260507140111 70 286 4.0 7.0 0.00 0.00 0.00 45 1011.9
20260507134611 70 253 4.0 8.0 0.00 0.00 0.00 44 1012.0
20260507131610 69 208 6.0 11.0 0.00 0.00 0.00 46 1012.3
20260507124610 70 215 4.0 14.0 0.00 0.00 0.00 45 1012.3
20260507123112 69 198 6.0 12.0 0.00 0.00 0.00 47 1012.3
20260507121610 70 272 8.0 13.0 0.00 0.00 0.00 48 1012.3
20260507120111 68 180 5.0 9.0 0.00 0.00 0.00 53 1012.4
20260507114610 67 192 6.0 9.0 0.00 0.00 0.00 54 1012.5
20260507113109 67 184 5.0 12.0 0.00 0.00 0.00 53 1012.5
20260507110109 67 240 4.0 8.0 0.00 0.00 0.00 53 1012.7
20260507104609 66 246 3.0 9.0 0.00 0.00 0.00 58 1012.6
20260507101609 66 183 5.0 10.0 0.00 0.00 0.00 59 1012.7
20260507100109 66 124 2.0 4.0 0.00 0.00 0.00 63 1012.5
20260507094609 64 156 6.0 10.0 0.00 0.00 0.00 63 1012.6
20260507093109 62 217 2.0 7.0 0.00 0.00 0.00 66 1012.7
20260507091609 62 182 4.0 8.0 0.00 0.00 0.00 65 1012.5
20260507084608 63 233 6.0 10.0 0.00 0.00 0.00 66 1012.2
20260507083108 62 221 3.0 9.0 0.00 0.00 0.00 69 1012.1
20260507080108 61 237 6.0 11.0 0.00 0.00 0.00 70 1011.8
20260507074608 60 194 6.0 13.0 0.00 0.00 0.00 70 1011.8
20260507073108 61 252 3.0 9.0 0.00 0.00 0.00 70 1011.7
20260507071608 59 232 6.0 9.0 0.00 0.00 0.00 75 1011.8
20260507070113 58 266 4.0 11.0 0.00 0.00 0.00 75 1011.6
20260507064613 59 227 5.0 9.0 0.00 0.00 0.00 75 1011.5
20260507063113 58 233 4.0 8.0 0.00 0.00 0.00 78 1011.4
20260507061612 57 209 2.0 9.0 0.00 0.00 0.00 79 1011.2
20260507060112 57 238 3.0 8.0 0.00 0.00 0.00 79 1011.0
20260507054612 56 290 2.0 9.0 0.00 0.00 0.00 81 1010.9
20260507053112 56 317 3.0 7.0 0.00 0.00 0.00 82 1010.8
20260507050112 56 241 1.0 8.0 0.00 0.00 0.00 84 1010.5
20260507043111 55 260 3.0 7.0 0.00 0.00 0.00 86 1010.1
20260507041612 54 273 1.0 7.0 0.00 0.00 0.00 88 1009.9
20260507040111 54 230 1.0 7.0 0.00 0.00 0.00 88 1009.8
20260507034611 54 242 2.0 4.0 0.00 0.00 0.00 89 1009.4
20260507033111 54 244 3.0 6.0 0.00 0.00 0.00 89 1009.4
20260507031611 53 267 0.0 0.0 0.00 0.00 0.00 90 1009.3
20260507030111 53 268 0.0 1.0 0.00 0.00 0.00 89 1009.1
20260507024611 53 268 0.0 1.0 0.00 0.00 0.00 89 1009.0
20260507023110 53 267 1.0 2.0 0.00 0.00 0.00 87 1008.9
20260507021611 54 268 0.0 2.0 0.00 0.00 0.00 86 1008.8
20260507020110 55 268 0.0 1.0 0.00 0.00 0.00 85 1008.9
20260507014610 55 268 1.0 3.0 0.00 0.00 0.00 84 1008.6
20260507013112 56 250 1.0 3.0 0.00 0.00 0.00 84 1008.6
20260507011610 56 244 3.0 6.0 0.00 0.00 0.00 83 1008.3
20260507010110 56 266 2.0 6.0 0.00 0.00 0.00 82 1008.0
20260507004610 56 245 4.0 8.0 0.00 0.00 0.00 82 1007.9
20260507003110 57 217 3.0 8.0 0.00 0.00 0.00 82 1007.7
20260507001610 57 274 2.0 6.0 0.00 0.00 0.00 81 1007.6
20260507000110 58 288 3.0 8.0 0.00 0.00 0.00 81 1007.2
20260506234610 58 263 4.0 10.0 0.00 0.00 0.00 81 1007.3
20260506233111 58 242 5.0 9.0 0.00 0.00 0.00 81 1007.0
20260506231609 58 217 2.0 4.0 0.00 0.00 0.00 79 1006.7
20260506230109 59 274 2.0 4.0 0.00 0.00 0.00 78 1006.3
20260506224611 58 254 4.0 7.0 0.00 0.00 0.00 77 1006.3
20260506223110 59 175 1.0 3.0 0.00 0.00 0.00 75 1006.2
20260506221609 59 154 0.0 2.0 0.00 0.00 0.00 74 1005.8
20260506220110 60 151 0.0 1.0 0.00 0.00 0.00 74 1005.8
20260506213110 61 194 3.0 5.0 0.00 0.00 0.00 72 1005.9
20260506211609 61 105 0.0 4.0 0.00 0.00 0.00 72 1005.2
20260506210108 62 143 2.0 4.0 0.00 0.00 0.00 71 1005.3
20260506204610 62 165 1.0 5.0 0.00 0.00 0.00 71 1005.1